ICESAT-2 (43613 NORAD) Tracking and Keplerian Element Data

This shows tracking and keplerian element data for the satellite.

Feedback or suggestion? Click here.




ElementValue
Catalog43613
NameICESAT-2
Epoch Orbit4587
Epoch Day193.87107923
Epoch Year2019
RAAN329.616
Inclination92.0024
Eccentricity0.000269
Argument of Perigee104.477
Mean Anonmoly255.6778
Mean Motion15.28262566
Decay Rate8.1E-07
L11 43613U 18070A 19193.87107923 .00000081 00000-0 27065-5 0 9997
L22 43613 92.0024 329.6160 0002690 104.4770 255.6778 15.28262566 45870

Live tracking and technical data element details for ICESAT-2 (NORAD 43613). ICESAT-2 can be tracked NOW for your location showing map with azimuth and elevation plus other details from your city location.

Track the satellite on the map from your city or location and see movement details for azimuth, elevation, latitude, longitude, range, height, and movement on the map or in text.







IsCatalogInMostPopularTable: catalog: 43613, numindb: 163
Update: records affected: 1



GetName: 43613 ICESAT-2

Hit Count: updated at: Tue, 16 Jul 2019 20:15:58 GMT